C/2024 L5 ( ATLAS )

Japanese version
Home page
Updated on May 27, 2025

---------------------------------------------------------------------

* Profile

Discovery Date June 14, 2024
Magnitude 17.6 mag
Discoverer Asteroid Terrestrial-Impact Last Alert System (ATLAS) search program

* Pictures

* Orbital Elements

Epoch 2025 May 5.0 TT = JDT 2460800.5
T 2025 Mar. 10.39618 TT                                 Payne
q   3.4324132            (2000.0)            P               Q
z  -0.0108344      Peri.  290.51457     -0.86072801     -0.48590572
 +/-0.0000014      Node   139.17671     -0.33578279     +0.76603723
e   1.0371882      Incl.  166.57308     -0.38261888     +0.42081182
From 726 observations 2024 June 14-2025 Apr. 30, mean residual 0".6.

* Finding Charts

* Magnitudes Graph

        m1 = 2.3 + 5 log d + 20.0 log r

---------------------------------------------------------------------

The orbital elements are published on M.P.E.C. 2025-J08.
The charts are made with StellaNavigator Ver.11 (AstroArts).
The magnitudes graphs are made with Comet for Windows.

---------------------------------------------------------------------

Copyright(C) Seiichi Yoshida (comet@aerith.net). All rights reserved.